Погода в Андимешке

Иран     33°29′09″N   48°21′10″E
темп.,
°C
ветер,
м/с
пор.,
м/с
влажн.,
%
обл.,
%
осадки,
мм/ч
давл.,
гПа
погр.,
м
17 апреля, сб
сб1701:30+13з113248 0.0 101510
04:30+11св113466 0.0 101510
07:30+12всв113317 0.0 101710
10:30+19св121899 0.0 1016593
13:30+23ююз021497 0.0 10141933
16:30+24зсз3413100 0.0 10122915
19:30+20юз2225100 0.0 101413
22:30+17ю0031100 0.0 101511
18 апреля, вс
вс1801:30+16с113150 0.0 101411
04:30+14всв113295 0.0 101511
07:30+15св113571 0.0 101611
10:30+21зсз11200 0.0 1016686
13:30+25зюз21155 0.0 10142977
16:30+26зюз33138 0.0 10123384
19:30+22юз342223 0.0 101345
22:30+18зсз2227100 0.0 101517
19 апреля, пн
пн1901:30+16зсз223692 0.0 101511
04:30+14з114167 0.0 101511
07:30+15в004590 0.0 101511
10:30+20зсз112787 0.0 1015608
13:30+24з111858 0.0 10131552
16:30+26з2315100 0.0 10102648
19:30+23юз2127100 0.0 101111
22:30+20сз1129100 0.0 101311
20 апреля, вт
вт2001:30+18св1133100 0.0 101311
04:30+17св2230100 0.0 101211
07:30+17ссв21345 0.0 101411
10:30+24св1220100 0.0 1014713
13:30+27сз1117100 0.0 10122621
16:30+28зсз2216100 0.0 10102886
19:30+25юз2127100 0.0 101011
22:30+22юз1129100 0.0 101211
21 апреля, ср
ср2101:30+19сз113352 0.0 101211
04:30+18св1135100 0.0 101211
07:30+19всв113848 0.0 101411
10:30+25зсз01214 0.0 1014661
13:30+29з33145 0.0 10123095
16:30+29зюз24137 0.0 10113869
19:30+22ссв333396 0.0 1014133
22:30+18св11459 0.0 101612